Regional Weather Roundup
Issued by NWS Charleston, WV

Home | Current Version | Previous Version | Text Only | Print | Product List | Glossary On
Versions: 1 2 3 4 5 6 7 8 9 10 11 12 13 14 15 16 17 18 19 20 21 22 23 24 25 26 27
000
ASUS41 KRLX 022310
RWRRLX
West Virginia Regional Weather Roundup
National Weather Service Charleston WV
700 PM EDT MON MAY 02 2016

Note: "fair" indicates few or no clouds below 12,000 feet with no
significant weather and/or obstructions to visibility.

WVZ003-030000-
Northern Panhandle of West Virginia

CITY           SKY/WX    TMP DP  RH WIND       PRES   REMARKS
WHEELING       CLOUDY    59  49  69 N8        29.93R
$$

WVZ009-030000-
Northwest West Virginia

CITY           SKY/WX    TMP DP  RH WIND       PRES   REMARKS
PARKERSBURG    CLOUDY   N/A N/A N/A N7        29.94R
$$

WVZ006-030000-
Western West Virginia

CITY           SKY/WX    TMP DP  RH WIND       PRES   REMARKS
HUNTINGTON     LGT RAIN  62  59  90 SW5       29.91F
$$

WVZ015-030000-
West Central West Virginia

CITY           SKY/WX    TMP DP  RH WIND       PRES   REMARKS
CHARLESTON     LGT RAIN  63  61  93 S6        29.94F
$$

WVZ022-031-030000-
North Central West Virginia

CITY           SKY/WX    TMP DP  RH WIND       PRES   REMARKS
CLARKSBURG     LGT RAIN  64  58  80 W6        29.91R
MORGANTOWN     CLOUDY    64  55  72 N6        29.91R
$$

WVZ025-035-042-045-030000-
Southern West Virginia

CITY           SKY/WX    TMP DP  RH WIND       PRES   REMARKS
BECKLEY        CLOUDY    59  56  89 NE3       29.98F
LOGAN          NOT AVBL
BLUEFIELD      LGT RAIN  57  53  86 VRB3      30.02S
LEWISBURG      RAIN      60  54  82 N3        29.98R
$$

WVZ047-030000-
Northern Mountains of West Virginia

CITY           SKY/WX    TMP DP  RH WIND       PRES   REMARKS
ELKINS         LGT RAIN  61  50  67 SW9G23    29.98R
$$

WVZ052-030000-
Eastern Panhandle of West Virginia

CITY           SKY/WX    TMP DP  RH WIND       PRES   REMARKS
MARTINSBURG    PTSUNNY   77  62  59 E5        29.80R
PETERSBURG     PTSUNNY   79  49  34 W16G22    29.85R
$$




USA.gov is the U.S. government's official web portal to all federal, state and local government web resources and services.